Preview of NWS' New Version of Forecast
This preview is not operational and should not be used for support decisions.
Latest weather observations around

Birmingham, Birmingham International Airport (KBHM)

Using International System of Units (Switch to English Units)
Date/ Time (CST) Wind (kph) Vis. (km) Weather Sky Cond. Temp (°C) Rel. Humidity Wind Chill (°C) Heat Index (°C) Pressure Precip. (cm)
Air Dwpt 6 hour Altimeter (hPa) Sea level (hPa) 1 hr 3 hr 6 hr
Max Min
Feb 22 05:53 SSW 15 16.09 Cloudy OVC011 20 18     90%     1028.8 1028.1      
Feb 22 04:53 SSW 11 16.09 Cloudy OVC013 20 18     87%     1028.5 1027.6      
Feb 22 03:53 SSW 11 16.09 Cloudy OVC012 20 18     87%     1028.1 1027.2      
Feb 22 03:42 SSW 11 16.09 Mostly Cloudy BKN012 19 18     90%     1027.8        
Feb 22 02:53 S 13 16.09 Clear CLR 20 18     87%     1027.4 1026.7      
Feb 22 01:53 S 17 16.09 Clear CLR 21 17     81%     1027.1 1026.4      
Feb 22 00:53 S 22 16.09 Clear CLR 21 17     78%     1027.1 1026.2      
Feb 21 23:53 S 22 16.09 Mostly Clear FEW100 22 17     76%   22 1027.1 1026.2      
Feb 21 22:53 S 21 16.09 Mostly Clear FEW100 22 17     71%   22 1027.1 1026.2      
Feb 21 21:53 SSE 13 16.09 Mostly Clear FEW100 23 16     66%   23 1026.8 1026.1      
Feb 21 20:53 SSE 11 16.09 Clear CLR 23 16     64%   23 1026.8 1025.9      
Feb 21 19:53 SSE 13 16.09 Clear CLR 24 16     62%   24 1026.1 1025.5      
Feb 21 18:53 SSE 9 16.09 Clear CLR 24 17     64%   24 1025.7 1025      
Feb 21 17:53 SSE 17 16.09 Mostly Clear FEW090 25 17     60%   25 1025.4 1024.6      
Feb 21 16:53 SSE 17 16.09 Partly Cloudy FEW050 SCT090 26 17     56%   26 1025.1 1024.3      
Feb 21 15:53 SSE 21 16.09 Partly Cloudy SCT047 26 16     54%   26 1025.1 1024.3      
Feb 21 14:53 S 21 16.09 Mostly Cloudy FEW043 BKN055 BKN070 27 16     51%   27 1025.1 1024.4      
Feb 21 13:53   16.09 Mostly Cloudy BKN041 BKN055 BKN085 27 16     51%   28 1025.7 1025      
Feb 21 12:53 S 24 16.09 Partly Cloudy FEW037 SCT075 27 17     54%   27 1026.4 1025.6      
Feb 21 11:53 S 22 16.09 Mostly Cloudy FEW032 BKN070 26 17     56%   26 1027.4 1026.6      
Feb 21 10:53   16.09 Mostly Cloudy FEW029 SCT035 BKN043 26 17     60%   26 1028.5 1027.5      
Feb 21 09:53 SSE 17 16.09 Partly Cloudy SCT020 SCT065 24 18     67%   25 1028.5 1027.9      
Feb 21 08:53 S 13 16.09 Mostly Cloudy SCT016 BKN043 22 18     79%   22 1028.8 1028.1      
Feb 21 07:53 S 11 16.09 Mostly Cloudy FEW014 SCT049 BKN055 21 18     81%     1028.5 1027.6      
Feb 21 07:20 S 9 16.09 Cloudy SCT014 BKN049 OVC075 21 18     84%     1028.1        
Feb 21 07:08 S 15 16.09 Cloudy SCT010 BKN016 OVC060 21 18     87%     1028.1        
Feb 21 06:53 S 15 9.66 Fog/Mist BKN010 BKN075 20 18     90%     1027.8 1027.1      
Feb 21 06:13 SSE 13 9.66 Fog/Mist BKN010 BKN085 20 18     90%     1027.1        
Feb 21 05:53 SSE 13 16.09 Partly Cloudy SCT085 20 18     87%     1027.1 1026.2      
Feb 21 04:53 SSE 15 16.09 Mostly Cloudy FEW055 SCT070 BKN090 21 18     87%     1026.8 1025.9      
Feb 21 04:31 SSE 11 16.09 Mostly Cloudy SCT016 SCT046 BKN060 21 18     87%     1026.8        
Feb 21 03:53 SSE 13 16.09 Cloudy BKN015 OVC024 21 18     87%     1026.4 1025.8      
Feb 21 03:04 S 11 16.09 Mostly Cloudy BKN018 BKN100 21 18     87%     1026.4        
Feb 21 02:53 SSE 11 16.09 Mostly Cloudy FEW016 SCT021 BKN050 21 18     87%     1026.4 1025.8      
Feb 21 02:26 S 15 16.09 Cloudy FEW014 BKN055 OVC100 21 18     84%     1026.8        
Feb 21 01:53 S 17 16.09 Cloudy OVC015 21 18     84%     1026.8 1025.9      
Feb 21 00:53 S 17 16.09 Cloudy OVC015 21 18     84%     1026.8 1026      
Feb 20 23:53 SSE 18 16.09 Cloudy OVC016 21 18     84%     1026.4 1025.7      
Feb 20 22:53 SSE 15 16.09 Mostly Cloudy BKN024 22 18     79%   22 1026.1 1025.5      
Feb 20 22:29 S 13 16.09 Cloudy BKN027 BKN070 OVC095 22 18     76%   22 1026.1        
Feb 20 21:53 SSE 11 16.09 Cloudy SCT032 OVC085 22 18     76%   22 1025.7 1025.2      
Feb 20 20:53 SSE 13 16.09 Mostly Clear FEW050 22 18     76%   22 1025.4 1024.6      
Feb 20 19:53 SE 15 16.09 Mostly Clear FEW050 22 17     73%   22 1025.1 1024.4      
Feb 20 18:53 SE 15 16.09 Partly Cloudy SCT085 23 17     66%   23 1024.7 1023.9      
Feb 20 17:53 SE 11 16.09 Mostly Cloudy BKN090 24 16     62%   24 1024.4 1023.9      
Feb 20 16:53 SSE 15 16.09 Mostly Cloudy BKN085 25 16     58%   25 1024.1 1023.4      
Feb 20 15:53 S 17 16.09 Mostly Cloudy SCT040 BKN080 26 16     56%   26 1023.7 1023.1      
Feb 20 14:53 SSE 13 16.09 Mostly Cloudy SCT045 BKN070 25 16     58%   25 1023.7 1023.1      
Feb 20 13:53 SSE 21 16.09 Mostly Cloudy FEW041 SCT049 BKN070 25 16     56%   25 1024.1 1023.4      
Feb 20 12:53 SSE 22 16.09 Mostly Cloudy SCT041 BKN049 BKN070 26 16     56%   26 1024.7 1024.1      
Feb 20 11:53 S 18 16.09 Mostly Cloudy SCT035 BKN050 BKN065 BKN250 24 16     60%   24 1025.7 1024.9      
Feb 20 10:53 SSE 24 16.09 Partly Cloudy SCT060 SCT250 25 16     58%   25 1026.4 1025.6      
Feb 20 09:53 S 15 16.09 Partly Cloudy FEW050 SCT250 23 16     64%   23 1026.8 1026.1      
Feb 20 08:53 SSE 22 16.09 Partly Cloudy SCT050 SCT250 21 15     70%     1026.8 1026.3      
Feb 20 07:53 SE 18 16.09 Partly Cloudy SCT055 SCT250 19 14     71%     1026.1 1025.6      
Feb 20 06:53 SE 11 16.09 Partly Cloudy SCT250 18 13     75%     1025.4 1024.8      
Feb 20 05:53 SE 17 16.09 Clear CLR 18 13     73%     1025.7 1025.1      
Feb 20 04:53 SE 18 16.09 Clear CLR 19 13     68%     1025.4 1024.7      
Feb 20 03:53 SE 13 16.09 Clear CLR 19 14     73%     1025.1 1024.4      
Feb 20 02:53 SE 13 16.09 Clear CLR 18 14     78%     1025.1 1024.2      
Feb 20 01:53 SE 9 16.09 Clear CLR 18 14     78%     1025.1 1024.6      
Feb 20 00:53 SSE 8 16.09 Mostly Cloudy BKN070 20 14     70%     1025.4 1024.5      
Feb 19 23:53 SSE 13 16.09 Cloudy OVC070 21 14     68%     1025.1 1024.3      
Feb 19 22:53 SSE 9 16.09 Mostly Cloudy BKN070 20 14     68%     1024.7 1024.2      
Feb 19 21:53 SE 11 16.09 Clear CLR 21 13     63%     1024.4 1023.8      
Feb 19 20:53 SSE 15 16.09 Mostly Clear FEW070 21 13     61%     1024.4 1023.6      
Feb 19 19:53 SE 13 16.09 Mostly Clear FEW250 22 13     57%   21 1023.7 1023.1      
Feb 19 18:53 SSE 9 16.09 Partly Cloudy SCT250 22 13     59%   21 1023.4 1022.8      
Feb 19 17:53 SE 9 16.09 Mostly Cloudy FEW060 BKN250 22 13     57%   22 1023.4 1022.7      
Feb 19 16:53 SSE 15 16.09 Mostly Cloudy FEW065 BKN250 23 13     53%   23 1023 1022.3      
Feb 19 15:53 SSE 11 16.09 Cloudy BKN070 OVC250 25 13     47%   25 1022.7 1021.9      
Feb 19 14:53   16.09 Cloudy SCT055 OVC070 26 13     47%   25 1022.7 1022.1      
Feb 19 13:53 SSE 17 16.09 Mostly Cloudy FEW041 SCT050 BKN070 BKN250 24 14     54%   24 1022.7 1022.2      
Feb 19 12:53 SSE 17 16.09 Mostly Cloudy FEW037 BKN250 24 14     54%   24 1023.4 1022.8      
Feb 19 11:53 SSE 18 16.09 Mostly Cloudy SCT032 BKN250 24 15     57%   24 1024.4 1023.8      
Feb 19 10:53   16.09 Mostly Cloudy BKN250 22 16     68%   22 1025.7 1025.1      
Feb 19 10:02 SE 21 14.48 Partly Cloudy SCT012 19 16     79%     1026.1        
Feb 19 09:53 SSE 22 14.48 Mostly Cloudy BKN012 BKN250 19 16     81%     1026.1 1025.8      
Feb 19 09:38 SSE 21 16.09 Mostly Cloudy BKN012 19 16     84%     1026.1        
Feb 19 09:25 SSE 24 16.09 Partly Cloudy SCT012 19 16     81%     1026.1        
Feb 19 08:53 SSE 18 9.66 Fog/Mist OVC012 17 16     90%     1026.1 1025.7      
Feb 19 08:42 SSE 17 9.66 Fog/Mist OVC012 17 16     90%     1026.1        
Feb 19 08:06 SE 21 14.48 Mostly Cloudy BKN007 17 16     93%     1026.1        
Feb 19 07:53 SSE 15 14.48 Partly Cloudy SCT007 17 16     93%     1025.7 1025.3      
Feb 19 07:38 SE 11 14.48 Partly Cloudy SCT007 17 15     90%     1025.4        
Feb 19 06:53 NNE 5 16.09 Cloudy OVC007 16 14     93%     1025.1 1024.7      
Feb 19 06:42 N 8 14.48 Mostly Cloudy BKN008 15 14     93%     1025.1        
Jun 12 03:53 SSE 8 16.09 Mostly Clear FEW040 23 22     91%   24 1021 1020.2      
Jun 11 23:53 SSE 8 16.09 Mostly Clear FEW050 26 21     74%   28 1021 1019.9      
Jun 11 07:53 SE 15 16.09 Partly Cloudy SCT065 SCT250 24 19     74%   24 1021.7 1020.7      
Jun 10 13:53 ESE 15 16.09 Mostly Cloudy SCT060 BKN075 30 14     39%   30 1019 1018      
Jun 10 11:53 5 16.09 Partly Cloudy SCT070 28        %     1019.7 1018.9      
Jun 08 22:53 Calm 16.09 Clear CLR 20 15     73%     1014.2 1013.4      
Jun 08 20:53 N 11 16.09 Mostly Clear FEW250 21 14     66%     1012.9 1012.2      
Jun 07 18:53   16.09 Mostly Clear FEW065 FEW250 26 12     42%   26 1011.5 1010.7      
Jun 06 03:11 NE 8 16.09 Mostly Cloudy FEW007 FEW022 BKN028 22 21     96%   22 1009.5        
Jun 06 02:53 NNE 8 16.09 Partly Cloudy SCT120 22 21     96%   22 1009.5 1008.5      
Jun 05 19:53 Calm 16.09 Light Rain FEW020 SCT120 OVC250 22 21     93%   23 1009.8 1009.1 0    
Jun 05 14:53 Calm 16.09 Cloudy BKN065 BKN100 OVC250 24 21     84%   25 1010.5 1009.8 0